Salinas, CA

2:22 AM PDT on June 19, 2018 (GMT -0700)
Salinas Municipal

Weather History for KSNS - October, 2017

Change the Weather History Date:

Wednesday, October 11, 2017

  Actual Average Record
Temperature  
Mean Temperature 58 °F 62 °F  
Max Temperature 67 °F 73 °F 94 °F (1939)
Min Temperature 49 °F 51 °F 40 °F (1985)
Degree Days  
Heating Degree Days 7 4  
Month to date heating degree days 35 37  
Since 1 July heating degree days 156 232  
Cooling Degree Days 0 1  
Month to date cooling degree days 2 11  
Year to date cooling degree days 215 116  
Growing Degree Days 10 (Base 50)    
Moisture  
Dew Point 50 °F    
Average Humidity 76    
Maximum Humidity 100    
Minimum Humidity 52    
Precipitation  
Precipitation 0.00 in 0.01 in 0.52 in (1963)
Month to date precipitation 0.00 0.14  
Year to date precipitation 12.49 9.06  
Sea Level Pressure  
Sea Level Pressure 29.98 in    
Wind  
Wind Speed 6 mph (WNW)    
Max Wind Speed 16 mph    
Max Gust Speed 20 mph    
Visibility 6 miles    
Events      
T = Trace of Precipitation, MM = Missing Value Source: NWS Daily Summary

Daily Weather History Graph

Daily Weather History Graph

Search for Another Location

Airport or City:

Astronomy

Oct. 11, 2017 Rise Set
Actual Time 7:10 AM PDT 6:34 PM PDT
Civil Twilight 6:44 AM PDT 7:00 PM PDT
Nautical Twilight 6:14 AM PDT 7:30 PM PDT
Astronomical Twilight 5:44 AM PDT 8:00 PM PDT
Moon 11:50 PM PDT (10/11) 1:26 PM PDT (10/11)
Length of Visible Light 12h 16m
Length of Day
11h 24m
Waning Gibbous, 58% of the Moon is Illuminated
Oct 11
Waning Gibbous
Oct 12
Last Quarter
Oct 19
New
Oct 27
First Quarter
Nov 3
Full

Hourly Weather History & Observations

Time (PDT) Temp. Dew Point Humidity Pressure Visibility Wind Dir Wind Speed Gust Speed Precip Events Conditions
12:08 AM 55.0 °F 54.0 °F 96% 29.95 in 2.0 mi WNW 6.9 mph - N/A   Overcast
12:28 AM 54.0 °F 54.0 °F 100% 29.94 in 3.0 mi WNW 4.6 mph - N/A   Overcast
12:53 AM 54.0 °F 54.0 °F 100% 29.97 in 3.0 mi WNW 5.8 mph - N/A   Overcast
1:53 AM 54.0 °F 53.1 °F 97% 29.96 in 5.0 mi NW 5.8 mph - N/A   Overcast
2:31 AM 54.0 °F 53.1 °F 97% 29.93 in 6.0 mi NNW 5.8 mph - N/A   Overcast
2:53 AM 55.0 °F 53.1 °F 93% 29.96 in 5.0 mi NW 4.6 mph - N/A   Overcast
3:53 AM 55.0 °F 52.0 °F 89% 29.94 in 7.0 mi WNW 4.6 mph - N/A   Overcast
4:53 AM 55.0 °F 52.0 °F 89% 29.94 in 7.0 mi WNW 3.5 mph - N/A   Overcast
5:53 AM 55.0 °F 52.0 °F 89% 29.95 in 7.0 mi West 4.6 mph - N/A   Overcast
6:53 AM 55.0 °F 51.1 °F 86% 29.96 in 7.0 mi West 4.6 mph - N/A   Overcast
7:53 AM 55.0 °F 51.1 °F 86% 29.98 in 5.0 mi NNW 4.6 mph - N/A   Overcast
8:53 AM 55.0 °F 52.0 °F 89% 30.00 in 5.0 mi Calm Calm - N/A   Overcast
9:53 AM 55.9 °F 51.1 °F 84% 30.01 in 5.0 mi Calm Calm - N/A   Haze
10:06 AM 55.9 °F 51.1 °F 84% 29.99 in 5.0 mi Calm Calm - N/A   Haze
10:53 AM 57.0 °F 51.1 °F 81% 30.01 in 5.0 mi Calm Calm - N/A   Haze
11:31 AM 59.0 °F 51.1 °F 75% 29.98 in 5.0 mi WNW 5.8 mph - N/A   Haze
11:53 AM 60.1 °F 51.1 °F 72% 30.01 in 6.0 mi WSW 6.9 mph - N/A   Haze
12:53 PM 64.9 °F 51.1 °F 61% 29.99 in 6.0 mi West 9.2 mph - N/A   Haze
1:53 PM 66.0 °F 48.9 °F 54% 29.97 in 7.0 mi West 12.7 mph - N/A   Clear
2:53 PM 66.0 °F 48.9 °F 54% 29.96 in 8.0 mi West 12.7 mph - N/A   Clear
3:53 PM 66.9 °F 48.0 °F 51% 29.98 in 6.0 mi West 12.7 mph - N/A   Haze
4:53 PM 64.0 °F 48.0 °F 56% 29.98 in 5.0 mi WSW 12.7 mph - N/A   Haze
5:53 PM 62.1 °F 48.0 °F 60% 29.98 in 5.0 mi WSW 11.5 mph - N/A   Haze
6:53 PM 60.1 °F 48.0 °F 64% 29.99 in 7.0 mi West 9.2 mph - N/A   Clear
7:53 PM 59.0 °F 48.0 °F 67% 30.00 in 7.0 mi WNW 6.9 mph - N/A   Clear
8:53 PM 59.0 °F 46.0 °F 62% 30.01 in 6.0 mi WNW 5.8 mph - N/A   Haze
9:53 PM 55.9 °F 46.9 °F 72% 30.03 in 7.0 mi NW 5.8 mph - N/A   Clear
10:53 PM 54.0 °F 46.9 °F 77% 30.04 in 7.0 mi NNW 3.5 mph - N/A   Clear
11:53 PM 52.0 °F 46.0 °F 80% 30.05 in 7.0 mi WNW 3.5 mph - N/A   Clear